• In Belarus
  • List of Countries
  • For 7 days
  • Water Temperature
  • Satellite Maps
  • Weather Map
  • Weather Widgets
  • user-avatar
    Login

    Hourly Weather Plovdiv

    Today, 21 November, Tuesday

    Time Temperature Precipitation Wind Pressure Humidity
    00:00 +1°C° 0 mm 3 mps 739 mmHg 80%
    01:00 +1°C° 0 mm 3 mps 739 mmHg 79%
    02:00 0°C° 0 mm 3 mps 739 mmHg 78%
    03:00 +1°C° 0 mm 2 mps 739 mmHg 78%
    04:00 +1°C° 0 mm 2 mps 740 mmHg 77%
    05:00 +1°C° 0 mm 2 mps 740 mmHg 76%
    06:00 +1°C° 0 mm 2 mps 740 mmHg 75%
    07:00 +1°C° 0 mm 2 mps 740 mmHg 74%
    08:00 +2°C° 0 mm 2 mps 741 mmHg 74%
    09:00 +3°C° 0 mm 2 mps 741 mmHg 66%
    10:00 +5°C° 0 mm 2 mps 741 mmHg 59%
    11:00 +7°C° 0 mm 2 mps 741 mmHg 52%
    12:00 +8°C° 0 mm 2 mps 741 mmHg 50%
    13:00 +9°C° 0 mm 2 mps 740 mmHg 49%
    14:00 +9°C° 0 mm 2 mps 740 mmHg 47%
    15:00 +8°C° 0 mm 2 mps 740 mmHg 53%
    16:00 +8°C° 0 mm 1 mps 740 mmHg 58%
    17:00 +6°C° 0 mm 1 mps 740 mmHg 63%
    18:00 +6°C° 0 mm 1 mps 740 mmHg 65%
    19:00 +6°C° 0 mm 1 mps 740 mmHg 66%
    20:00 +5°C° 0 mm 2 mps 740 mmHg 68%
    21:00 +5°C° 0 mm 2 mps 740 mmHg 68%
    22:00 +5°C° 0 mm 2 mps 740 mmHg 69%
    23:00 +5°C° 0 mm 2 mps 740 mmHg 69%

    Tomorrow, 22 November, Wednesday

    Time Temperature Precipitation Wind Pressure Humidity
    00:00 +5°C° 0 mm 2 mps 740 mmHg 69%
    01:00 +5°C° 0 mm 2 mps 740 mmHg 69%
    02:00 +5°C° 0 mm 2 mps 740 mmHg 69%
    03:00 +5°C° 0 mm 2 mps 740 mmHg 70%
    04:00 +5°C° 0 mm 2 mps 740 mmHg 70%
    05:00 +5°C° 0 mm 2 mps 740 mmHg 70%
    06:00 +6°C° 0 mm 2 mps 740 mmHg 70%
    07:00 +6°C° 0 mm 2 mps 740 mmHg 70%
    08:00 +6°C° 0 mm 2 mps 740 mmHg 69%
    09:00 +8°C° 0 mm 2 mps 740 mmHg 64%
    10:00 +10°C° 0 mm 2 mps 740 mmHg 59%
    11:00 +13°C° 0 mm 1 mps 741 mmHg 55%
    12:00 +14°C° 0 mm 2 mps 740 mmHg 54%
    13:00 +15°C° 0 mm 2 mps 740 mmHg 53%
    14:00 +16°C° 0 mm 2 mps 740 mmHg 52%
    15:00 +14°C° 0 mm 2 mps 739 mmHg 58%
    16:00 +12°C° 0 mm 2 mps 739 mmHg 64%
    17:00 +11°C° 0 mm 1 mps 739 mmHg 70%
    18:00 +9°C° 0 mm 2 mps 740 mmHg 71%
    19:00 +9°C° 0 mm 2 mps 740 mmHg 72%
    20:00 +9°C° 0 mm 2 mps 740 mmHg 73%
    21:00 +8°C° 0 mm 2 mps 740 mmHg 73%
    22:00 +8°C° 0 mm 2 mps 740 mmHg 73%
    23:00 +8°C° 0 mm 2 mps 740 mmHg 73%

    Day after tomorrow, 23 November, Thursday

    Time Temperature Precipitation Wind Pressure Humidity
    00:00 +8°C° 0 mm 2 mps 740 mmHg 71%
    01:00 +8°C° 0 mm 2 mps 740 mmHg 70%
    02:00 +8°C° 0 mm 2 mps 740 mmHg 69%
    03:00 +8°C° 0 mm 2 mps 740 mmHg 68%
    04:00 +8°C° 0 mm 2 mps 740 mmHg 67%
    05:00 +8°C° 0 mm 2 mps 740 mmHg 65%
    06:00 +8°C° 0 mm 2 mps 740 mmHg 65%
    07:00 +8°C° 0 mm 2 mps 741 mmHg 64%
    08:00 +8°C° 0 mm 2 mps 741 mmHg 63%
    09:00 +12°C° 0 mm 1 mps 741 mmHg 58%
    10:00 +14°C° 0 mm 1 mps 741 mmHg 53%
    11:00 +16°C° 0 mm 1 mps 742 mmHg 48%
    12:00 +18°C° 0 mm 1 mps 741 mmHg 48%
    13:00 +18°C° 0 mm 1 mps 741 mmHg 47%
    14:00 +19°C° 0 mm 1 mps 741 mmHg 46%
    15:00 +16°C° 0 mm 1 mps 741 mmHg 53%
    16:00 +14°C° 0 mm 1 mps 741 mmHg 59%
    17:00 +11°C° 0 mm 0 mps 741 mmHg 66%
    18:00 +12°C° 0 mm 1 mps 742 mmHg 67%
    19:00 +11°C° 0 mm 1 mps 742 mmHg 68%
    20:00 +11°C° 0 mm 1 mps 742 mmHg 69%
    21:00 +11°C° 0 mm 1 mps 743 mmHg 69%
    22:00 +10°C° 0 mm 1 mps 743 mmHg 69%
    23:00 +10°C° 0 mm 1 mps 743 mmHg 69%

    24 November, Friday

    Time Temperature Precipitation Wind Pressure Humidity
    00:00 +10°C° 0 mm 1 mps 743 mmHg 69%
    01:00 +10°C° 0 mm 1 mps 743 mmHg 69%
    02:00 +9°C° 0 mm 1 mps 743 mmHg 69%
    03:00 +9°C° 0 mm 1 mps 743 mmHg 68%
    04:00 +9°C° 0 mm 1 mps 743 mmHg 68%
    05:00 +9°C° 0 mm 1 mps 743 mmHg 67%
    06:00 +9°C° 0 mm 1 mps 743 mmHg 67%
    07:00 +9°C° 0 mm 1 mps 743 mmHg 66%
    08:00 +9°C° 0 mm 1 mps 743 mmHg 65%
    09:00 +11°C° 0 mm 1 mps 744 mmHg 59%
    10:00 +13°C° 0 mm 1 mps 744 mmHg 54%
    11:00 +15°C° 0 mm 0 mps 744 mmHg 48%
    12:00 +15°C° 0 mm 0 mps 744 mmHg 47%
    13:00 +16°C° 0 mm 1 mps 743 mmHg 47%
    14:00 +18°C° 0 mm 1 mps 743 mmHg 46%
    15:00 +15°C° 0 mm 1 mps 743 mmHg 53%
    16:00 +13°C° 0 mm 1 mps 743 mmHg 60%
    17:00 +11°C° 0 mm 0 mps 743 mmHg 67%
    18:00 +11°C° 0 mm 1 mps 744 mmHg 68%
    19:00 +11°C° 0 mm 1 mps 744 mmHg 70%
    20:00 +10°C° 0 mm 1 mps 744 mmHg 71%
    21:00 +10°C° 0 mm 1 mps 745 mmHg 71%
    22:00 +10°C° 0 mm 1 mps 745 mmHg 72%
    23:00 +9°C° 0 mm 1 mps 746 mmHg 72%

    25 November, Saturday

    Time Temperature Precipitation Wind Pressure Humidity
    00:00 +9°C° 0 mm 1 mps 746 mmHg 72%
    01:00 +9°C° 0 mm 1 mps 746 mmHg 73%
    02:00 +8°C° 0 mm 1 mps 746 mmHg 73%
    03:00 +8°C° 0 mm 1 mps 746 mmHg 73%
    04:00 +8°C° 0 mm 1 mps 746 mmHg 74%
    05:00 +8°C° 0 mm 1 mps 746 mmHg 74%
    06:00 +8°C° 0 mm 1 mps 746 mmHg 74%
    07:00 +8°C° 0 mm 1 mps 746 mmHg 74%
    08:00 +8°C° 0 mm 1 mps 746 mmHg 73%
    09:00 +10°C° 0 mm 1 mps 747 mmHg 68%
    10:00 +12°C° 0 mm 1 mps 747 mmHg 63%
    11:00 +14°C° 0 mm 1 mps 747 mmHg 57%
    12:00 +14°C° 0 mm 1 mps 747 mmHg 57%
    13:00 +15°C° 0 mm 1 mps 746 mmHg 56%
    14:00 +15°C° 0 mm 1 mps 746 mmHg 56%
    15:00 +13°C° 0 mm 1 mps 746 mmHg 63%
    16:00 +12°C° 0 mm 1 mps 746 mmHg 71%
    17:00 +10°C° 0 mm 1 mps 746 mmHg 79%
    18:00 +10°C° 0 mm 1 mps 746 mmHg 80%
    19:00 +9°C° 0 mm 1 mps 746 mmHg 81%
    20:00 +9°C° 0 mm 1 mps 746 mmHg 82%
    21:00 +9°C° 0 mm 1 mps 746 mmHg 83%
    22:00 +8°C° 0 mm 1 mps 746 mmHg 83%
    23:00 +8°C° 0 mm 1 mps 746 mmHg 83%

    26 November, Sunday

    Time Temperature Precipitation Wind Pressure Humidity
    00:00 +8°C° 0 mm 1 mps 746 mmHg 83%
    01:00 +8°C° 0 mm 1 mps 746 mmHg 84%
    02:00 +8°C° 0 mm 1 mps 746 mmHg 84%
    03:00 +8°C° 0 mm 1 mps 746 mmHg 83%
    04:00 +7°C° 0 mm 1 mps 746 mmHg 82%
    05:00 +7°C° 0 mm 1 mps 746 mmHg 81%
    06:00 +7°C° 0 mm 1 mps 746 mmHg 79%
    07:00 +8°C° 0 mm 1 mps 746 mmHg 77%
    08:00 +8°C° 0 mm 1 mps 746 mmHg 75%
    09:00 +10°C° 0 mm 1 mps 746 mmHg 68%
    10:00 +12°C° 0 mm 1 mps 746 mmHg 60%
    11:00 +14°C° 0 mm 1 mps 746 mmHg 52%
    12:00 +15°C° 0 mm 1 mps 745 mmHg 51%
    13:00 +15°C° 0 mm 1 mps 745 mmHg 50%
    14:00 +16°C° 0 mm 1 mps 744 mmHg 48%
    15:00 +14°C° 0 mm 1 mps 744 mmHg 56%
    16:00 +12°C° 0 mm 1 mps 744 mmHg 64%
    17:00 +10°C° 0 mm 0 mps 744 mmHg 72%
    18:00 +10°C° 0 mm 1 mps 744 mmHg 73%
    19:00 +10°C° 0 mm 1 mps 744 mmHg 73%
    20:00 +9°C° 0 mm 1 mps 744 mmHg 74%
    21:00 +9°C° 0 mm 1 mps 744 mmHg 73%
    22:00 +9°C° 0 mm 1 mps 744 mmHg 72%
    23:00 +9°C° 0 mm 1 mps 744 mmHg 72%
    Show more